Flag for Norway Weather past 2 weeks in Lillehammer, Norway

Now
77 °F

Warm.


Feels Like: 78 °F
Forecast: 60 / 88 °F
Wind: 5 mph from East

Location: Lillehammer-Saetherengen

Current Time: Jul 22, 2014 at 9:52:45 PM

Latest Report: Jul 22, 2014 at 6:00 PM


Visibility: N/A

Pressure: 30.22 "Hg

Humidity: 43%

Dew point: 53 °F

Location of LillehammerLocation

Historic Weather in Lillehammer — Graph

°F

Lillehammer temperature yesterday

Maximum temperature yesterday: 81 °F (at 6:00 PM)
Minimum temperature yesterday: 57 °F (at 6:00 AM)
Average temperature yesterday: 68 °F

Past Weeks' High & Low Weather Summary

 TemperatureHumidityPressure
High83 °F (Jul 22, 5:00 PM)97% (Jul 8, 9:00 AM)30.26 "Hg (Jul 8, 9:00 AM)
Low54 °F (Jul 20, 5:00 AM)27% (Jul 13, 4:00 PM)29.66 "Hg (Jul 14, 5:00 PM)
Average67 °F71%30.00 "Hg
* Reported Jul 7 8:00 PM — Jul 22 6:00 PM, Lillehammer, Weather by CustomWeather, © 2014

Note: Actual official high and low records may vary slightly from our data, if they occured in-between our weather recording intervals... More about our weather records

Advertising

Lillehammer weather history for previous 24 hours

 ConditionsComfort  
Time TempWeatherWind HumidityBarometerVisibility
6:00 PM
Jul 22
77 °FWarm.5 mph43%30.22 "HgN/A
5:00 PM83 °FWarm.2 mph41%30.20 "HgN/A
4:00 PM80 °FWarm.1 mph48%30.21 "HgN/A
3:00 PM81 °FPleasantly warm.1 mph40%30.22 "HgN/A
2:00 PM81 °FWarm.2 mph45%30.23 "HgN/A
1:00 PM81 °FWarm.2 mph42%30.22 "HgN/A
12:00 PM75 °FMild.2 mph58%30.24 "HgN/A
11:00 AM74 °FMild.1 mph58%30.25 "HgN/A
10:00 AM70 °FMild.1 mph62%30.26 "HgN/A
9:00 AM66 °FMild.1 mph69%30.26 "HgN/A
8:00 AM65 °FMild.1 mph70%30.26 "HgN/A
7:00 AM62 °FCool.1 mph77%30.26 "HgN/A
6:00 AM60 °FCool.2 mph80%30.26 "HgN/A
5:00 AM60 °FCool.1 mph80%30.24 "HgN/A
3:00 AM60 °FCool.1 mph83%30.22 "HgN/A
2:00 AM64 °FMild.2 mph73%30.20 "HgN/A
1:00 AM62 °FMild.1 mph76%30.19 "HgN/A
12:00 AM63 °FMild.1 mph76%30.18 "HgN/A
11:00 PM
Jul 21
64 °FMild.No wind74%30.16 "HgN/A
10:00 PM69 °FMild.No wind66%30.14 "HgN/A
9:00 PM72 °FMild.1 mph59%30.13 "HgN/A
Weather by CustomWeather, © 2014

See weather overviewHow to use our weather pages